,,PressureMeas_1m,,PRMeasQMR101_1,,RHStat155_1m_1,,SRMeasQMS101R_1m,,TAStat155_1m_1,,GenWind_1,,GenWind_1,
2019-08-16, 00:00:06,VALID,919.636,VALID,0.0,VALID,98.819,VALID,0.001,VALID,20.802,INVALID,360.0,VALID,0.0,
2019-08-16, 00:01:06,VALID,919.634,VALID,0.0,VALID,98.86,VALID,0.012,VALID,20.807,INVALID,360.0,VALID,0.0,
2019-08-16, 00:02:06,VALID,919.622,VALID,0.0,VALID,98.832,VALID,0.009,VALID,20.798,INVALID,360.0,VALID,0.0,
2019-08-16, 00:03:06,VALID,919.613,VALID,0.0,VALID,98.852,VALID,0.005,VALID,20.795,INVALID,360.0,VALID,0.0,
2019-08-16, 00:04:06,VALID,919.594,VALID,0.0,VALID,98.862,VALID,-0.002,VALID,20.803,INVALID,360.0,VALID,0.0,
2019-08-16, 00:05:06,VALID,919.57,VALID,0.0,VALID,98.929,VALID,-0.011,VALID,20.833,INVALID,360.0,VALID,0.0,
2019-08-16, 00:06:06,VALID,919.554,VALID,0.0,VALID,98.906,VALID,0.008,VALID,20.818,INVALID,360.0,VALID,0.0,
2019-08-16, 00:07:06,VALID,919.526,VALID,0.0,VALID,98.906,VALID,-0.004,VALID,20.826,INVALID,360.0,VALID,0.0,
2019-08-16, 00:08:06,VALID,919.517,VALID,0.0,VALID,98.884,VALID,0.015,VALID,20.819,INVALID,360.0,VALID,0.0,
2019-08-16, 00:09:06,VALID,919.503,VALID,0.0,VALID,98.871,VALID,0.002,VALID,20.821,INVALID,360.0,VALID,0.0,
2019-08-16, 00:10:06,VALID,919.483,VALID,0.0,VALID,98.84,VALID,0.004,VALID,20.813,INVALID,360.0,VALID,0.0,
2019-08-16, 00:11:06,VALID,919.469,VALID,0.0,VALID,98.828,VALID,0.005,VALID,20.788,INVALID,360.0,VALID,0.0,
2019-08-16, 00:12:06,VALID,919.473,VALID,0.0,VALID,98.751,VALID,0.007,VALID,20.752,INVALID,360.0,VALID,0.0,
2019-08-16, 00:13:06,VALID,919.466,VALID,0.0,VALID,98.703,VALID,-0.001,VALID,20.713,INVALID,360.0,VALID,0.0,
2019-08-16, 00:14:06,VALID,919.467,VALID,0.0,VALID,98.838,VALID,-0.002,VALID,20.768,INVALID,360.0,VALID,0.0,
2019-08-16, 00:15:06,VALID,919.455,VALID,0.0,VALID,98.867,VALID,-0.014,VALID,20.744,INVALID,360.0,VALID,0.0,
2019-08-16, 00:16:06,VALID,919.465,VALID,0.0,VALID,98.823,VALID,-0.004,VALID,20.702,INVALID,360.0,VALID,0.0,
2019-08-16, 00:17:06,VALID,919.466,VALID,0.0,VALID,98.768,VALID,-0.006,VALID,20.667,INVALID,360.0,VALID,0.0,
2019-08-16, 00:18:06,VALID,919.443,VALID,0.0,VALID,98.74,VALID,0.0,VALID,20.637,INVALID,360.0,VALID,0.0,
2019-08-16, 00:19:06,VALID,919.449,VALID,0.0,VALID,98.853,VALID,-0.004,VALID,20.71,INVALID,360.0,VALID,0.0,
2019-08-16, 00:20:06,VALID,919.447,VALID,0.0,VALID,98.84,VALID,-0.013,VALID,20.715,INVALID,360.0,VALID,0.0,
2019-08-16, 00:21:06,VALID,919.418,VALID,0.0,VALID,98.807,VALID,-0.009,VALID,20.715,INVALID,360.0,VALID,0.0,
2019-08-16, 00:22:06,VALID,919.42,VALID,0.0,VALID,98.835,VALID,-0.008,VALID,20.748,INVALID,360.0,VALID,0.0,
2019-08-16, 00:23:06,VALID,919.404,VALID,0.0,VALID,98.835,VALID,-0.02,VALID,20.75,INVALID,360.0,VALID,0.0,
2019-08-16, 00:24:06,VALID,919.383,VALID,0.0,VALID,98.633,VALID,-0.009,VALID,20.687,INVALID,360.0,VALID,0.0,
2019-08-16, 00:25:06,VALID,919.374,VALID,0.0,VALID,98.641,VALID,-0.02,VALID,20.694,INVALID,360.0,VALID,0.0,
2019-08-16, 00:26:06,VALID,919.397,VALID,0.0,VALID,98.772,VALID,-0.01,VALID,20.779,INVALID,360.0,VALID,0.0,
2019-08-16, 00:27:06,VALID,919.366,VALID,0.0,VALID,98.799,VALID,-0.016,VALID,20.795,INVALID,360.0,VALID,0.0,
2019-08-16, 00:28:06,VALID,919.318,VALID,0.0,VALID,98.65,VALID,-0.013,VALID,20.723,INVALID,360.0,VALID,0.0,
2019-08-16, 00:29:06,VALID,919.327,VALID,0.0,VALID,98.628,VALID,-0.009,VALID,20.743,INVALID,360.0,VALID,0.0,
2019-08-16, 00:30:06,VALID,919.301,VALID,0.0,VALID,98.524,VALID,-0.007,VALID,20.687,INVALID,360.0,VALID,0.0,
2019-08-16, 00:31:06,VALID,919.293,VALID,0.0,VALID,98.536,VALID,-0.01,VALID,20.708,INVALID,360.0,VALID,0.0,
2019-08-16, 00:32:06,VALID,919.287,VALID,0.0,VALID,98.551,VALID,-0.011,VALID,20.71,INVALID,360.0,VALID,0.0,
2019-08-16, 00:33:06,VALID,919.258,VALID,0.0,VALID,98.556,VALID,-0.003,VALID,20.727,INVALID,360.0,VALID,0.0,
2019-08-16, 00:34:06,VALID,919.259,VALID,0.0,VALID,98.581,VALID,-0.012,VALID,20.711,INVALID,360.0,VALID,0.0,
2019-08-16, 00:35:06,VALID,919.265,VALID,0.0,VALID,98.552,VALID,-0.029,VALID,20.702,INVALID,360.0,VALID,0.0,
2019-08-16, 00:36:06,VALID,919.265,VALID,0.0,VALID,98.629,VALID,-0.011,VALID,20.734,INVALID,360.0,VALID,0.0,
2019-08-16, 00:37:06,VALID,919.226,VALID,0.0,VALID,98.66,VALID,0.006,VALID,20.726,INVALID,360.0,VALID,0.0,
2019-08-16, 00:38:06,VALID,919.231,VALID,0.0,VALID,98.653,VALID,-0.012,VALID,20.731,INVALID,360.0,VALID,0.0,
2019-08-16, 00:39:06,VALID,919.227,VALID,0.0,VALID,98.705,VALID,0.009,VALID,20.736,INVALID,360.0,VALID,0.0,
2019-08-16, 00:40:06,VALID,919.193,VALID,0.0,VALID,98.735,VALID,-0.014,VALID,20.749,INVALID,360.0,VALID,0.0,
2019-08-16, 00:41:06,VALID,919.196,VALID,0.0,VALID,98.675,VALID,-0.013,VALID,20.702,INVALID,360.0,VALID,0.0,
2019-08-16, 00:42:06,VALID,919.195,VALID,0.0,VALID,98.705,VALID,-0.011,VALID,20.731,INVALID,360.0,VALID,0.0,
2019-08-16, 00:43:06,VALID,919.189,VALID,0.0,VALID,98.813,VALID,0.005,VALID,20.784,INVALID,360.0,VALID,0.0,
2019-08-16, 00:44:06,VALID,919.175,VALID,0.0,VALID,98.781,VALID,0.012,VALID,20.782,INVALID,360.0,VALID,0.0,
2019-08-16, 00:45:06,VALID,919.187,VALID,0.0,VALID,98.752,VALID,0.002,VALID,20.76,INVALID,360.0,VALID,0.0,
2019-08-16, 00:46:06,VALID,919.171,VALID,0.0,VALID,98.653,VALID,0.004,VALID,20.705,INVALID,360.0,VALID,0.0,
2019-08-16, 00:47:06,VALID,919.15,VALID,0.0,VALID,98.557,VALID,0.013,VALID,20.694,INVALID,360.0,VALID,0.0,
2019-08-16, 00:48:06,VALID,919.13,VALID,0.0,VALID,98.558,VALID,0.009,VALID,20.691,INVALID,360.0,VALID,0.0,
2019-08-16, 00:49:06,VALID,919.113,VALID,0.0,VALID,98.534,VALID,-0.012,VALID,20.668,INVALID,360.0,VALID,0.0,
2019-08-16, 00:50:06,VALID,919.105,VALID,0.0,VALID,98.392,VALID,0.001,VALID,20.63,INVALID,360.0,VALID,0.0,
2019-08-16, 00:51:06,VALID,919.099,VALID,0.0,VALID,98.396,VALID,0.014,VALID,20.621,INVALID,360.0,VALID,0.0,
2019-08-16, 00:52:06,VALID,919.092,VALID,0.0,VALID,98.422,VALID,0.033,VALID,20.623,INVALID,360.0,VALID,0.0,
2019-08-16, 00:53:06,VALID,919.086,VALID,0.0,VALID,98.508,VALID,0.013,VALID,20.656,INVALID,360.0,VALID,0.0,
2019-08-16, 00:54:06,VALID,919.075,VALID,0.0,VALID,98.627,VALID,0.006,VALID,20.675,INVALID,360.0,VALID,0.0,
2019-08-16, 00:55:06,VALID,919.042,VALID,0.0,VALID,98.543,VALID,0.011,VALID,20.635,INVALID,360.0,VALID,0.0,
2019-08-16, 00:56:06,VALID,919.03,VALID,0.0,VALID,98.452,VALID,0.012,VALID,20.602,INVALID,360.0,VALID,0.0,
2019-08-16, 00:57:06,VALID,919.003,VALID,0.0,VALID,98.447,VALID,0.008,VALID,20.603,INVALID,360.0,VALID,0.0,
2019-08-16, 00:58:06,VALID,919.015,VALID,0.0,VALID,98.474,VALID,-0.003,VALID,20.599,INVALID,360.0,VALID,0.0,
2019-08-16, 00:59:06,VALID,918.99,VALID,0.0,VALID,98.511,VALID,0.0,VALID,20.606,INVALID,360.0,VALID,0.0,
2019-08-16, 01:00:06,VALID,918.97,VALID,0.0,VALID,98.622,VALID,0.008,VALID,20.649,INVALID,360.0,VALID,0.0,
2019-08-16, 01:01:06,VALID,918.983,VALID,0.0,VALID,98.632,VALID,0.021,VALID,20.664,INVALID,360.0,VALID,0.0,
2019-08-16, 01:02:06,VALID,919.012,VALID,0.0,VALID,98.631,VALID,0.017,VALID,20.681,INVALID,360.0,VALID,0.0,
2019-08-16, 01:03:06,VALID,919.002,VALID,0.0,VALID,98.521,VALID,0.011,VALID,20.67,INVALID,360.0,VALID,0.0,
2019-08-16, 01:04:06,VALID,919.002,VALID,0.0,VALID,98.497,VALID,0.017,VALID,20.685,INVALID,360.0,VALID,0.0,
2019-08-16, 01:05:06,VALID,918.983,VALID,0.0,VALID,98.366,VALID,0.014,VALID,20.655,INVALID,360.0,VALID,0.0,
2019-08-16, 01:06:06,VALID,918.989,VALID,0.0,VALID,98.33,VALID,0.014,VALID,20.661,INVALID,360.0,VALID,0.0,
2019-08-16, 01:07:06,VALID,918.989,VALID,0.0,VALID,98.369,VALID,0.006,VALID,20.664,INVALID,360.0,VALID,0.0,
2019-08-16, 01:08:06,VALID,918.999,VALID,0.0,VALID,98.422,VALID,0.025,VALID,20.701,INVALID,360.0,VALID,0.0,
2019-08-16, 01:09:06,VALID,918.975,VALID,0.0,VALID,98.392,VALID,0.004,VALID,20.696,INVALID,360.0,VALID,0.0,
2019-08-16, 01:10:06,VALID,918.973,VALID,0.0,VALID,98.258,VALID,-0.001,VALID,20.662,INVALID,360.0,VALID,0.0,
2019-08-16, 01:11:06,VALID,918.925,VALID,0.0,VALID,98.346,VALID,0.018,VALID,20.694,INVALID,360.0,VALID,0.0,
2019-08-16, 01:12:06,VALID,918.902,VALID,0.0,VALID,98.369,VALID,-0.014,VALID,20.721,INVALID,360.0,VALID,0.0,
2019-08-16, 01:13:06,VALID,918.861,VALID,0.0,VALID,98.415,VALID,-0.002,VALID,20.746,INVALID,360.0,VALID,0.0,
2019-08-16, 01:14:06,VALID,918.852,VALID,0.0,VALID,98.368,VALID,-0.003,VALID,20.724,INVALID,360.0,VALID,0.0,
2019-08-16, 01:15:06,VALID,918.83,VALID,0.0,VALID,98.223,VALID,-0.007,VALID,20.674,INVALID,360.0,VALID,0.0,
2019-08-16, 01:16:06,VALID,918.827,VALID,0.0,VALID,98.137,VALID,-0.003,VALID,20.635,INVALID,360.0,VALID,0.0,
2019-08-16, 01:17:06,VALID,918.822,VALID,0.0,VALID,98.092,VALID,-0.009,VALID,20.611,INVALID,360.0,VALID,0.0,
2019-08-16, 01:18:06,VALID,918.793,VALID,0.2,VALID,98.114,VALID,0.011,VALID,20.613,INVALID,360.0,VALID,0.0,
2019-08-16, 01:19:06,VALID,918.805,VALID,0.0,VALID,98.256,VALID,0.013,VALID,20.645,INVALID,360.0,VALID,0.0,
2019-08-16, 01:20:06,VALID,918.787,VALID,0.0,VALID,98.488,VALID,0.024,VALID,20.715,INVALID,360.0,VALID,0.0,
2019-08-16, 01:21:06,VALID,918.78,VALID,0.2,VALID,98.548,VALID,0.027,VALID,20.722,INVALID,360.0,VALID,0.0,
2019-08-16, 01:22:06,VALID,918.775,VALID,0.0,VALID,98.541,VALID,0.025,VALID,20.718,INVALID,360.0,VALID,0.0,
2019-08-16, 01:23:06,VALID,918.806,VALID,0.0,VALID,98.402,VALID,0.028,VALID,20.678,INVALID,360.0,VALID,0.0,
2019-08-16, 01:24:06,VALID,918.801,VALID,0.0,VALID,98.315,VALID,0.032,VALID,20.634,INVALID,360.0,VALID,0.0,
2019-08-16, 01:25:06,VALID,918.784,VALID,0.0,VALID,98.156,VALID,0.029,VALID,20.598,INVALID,360.0,VALID,0.0,
2019-08-16, 01:26:06,VALID,918.779,VALID,0.2,VALID,98.222,VALID,0.037,VALID,20.608,INVALID,360.0,VALID,0.0,
2019-08-16, 01:27:06,VALID,918.77,VALID,0.0,VALID,98.282,VALID,0.034,VALID,20.611,INVALID,360.0,VALID,0.0,
2019-08-16, 01:28:06,VALID,918.737,VALID,0.0,VALID,98.458,VALID,0.035,VALID,20.659,INVALID,360.0,VALID,0.0,
2019-08-16, 01:29:06,VALID,918.722,VALID,0.0,VALID,98.596,VALID,0.039,VALID,20.696,INVALID,360.0,VALID,0.0,
2019-08-16, 01:30:06,VALID,918.7,VALID,0.0,VALID,98.648,VALID,0.031,VALID,20.695,INVALID,360.0,VALID,0.0,
2019-08-16, 01:31:06,VALID,918.683,VALID,0.0,VALID,98.568,VALID,0.031,VALID,20.637,INVALID,360.0,VALID,0.0,
2019-08-16, 01:32:06,VALID,918.671,VALID,0.0,VALID,98.49,VALID,0.039,VALID,20.61,INVALID,360.0,VALID,0.0,
2019-08-16, 01:33:06,VALID,918.653,VALID,0.2,VALID,98.559,VALID,0.033,VALID,20.63,INVALID,360.0,VALID,0.0,
2019-08-16, 01:34:06,VALID,918.639,VALID,0.0,VALID,98.546,VALID,0.005,VALID,20.602,INVALID,360.0,VALID,0.0,
2019-08-16, 01:35:06,VALID,918.629,VALID,0.0,VALID,98.521,VALID,0.027,VALID,20.57,INVALID,360.0,VALID,0.0,
2019-08-16, 01:36:06,VALID,918.635,VALID,0.0,VALID,98.469,VALID,-0.01,VALID,20.524,INVALID,360.0,VALID,0.0,
2019-08-16, 01:37:06,VALID,918.638,VALID,0.0,VALID,98.189,VALID,-0.005,VALID,20.464,INVALID,360.0,VALID,0.0,
2019-08-16, 01:38:06,VALID,918.619,VALID,0.0,VALID,97.973,VALID,0.008,VALID,20.437,VALID,64.0,VALID,0.0,
2019-08-16, 01:39:06,VALID,918.62,VALID,0.0,VALID,97.846,VALID,0.004,VALID,20.463,VALID,65.0,VALID,0.0,
2019-08-16, 01:40:06,VALID,918.593,VALID,0.0,VALID,97.69,VALID,-0.009,VALID,20.472,INVALID,360.0,VALID,0.0,
2019-08-16, 01:41:06,VALID,918.582,VALID,0.0,VALID,97.565,VALID,-0.001,VALID,20.497,INVALID,360.0,VALID,0.0,
2019-08-16, 01:42:06,VALID,918.558,VALID,0.0,VALID,97.771,VALID,0.015,VALID,20.573,INVALID,360.0,VALID,0.0,
2019-08-16, 01:43:06,VALID,918.533,VALID,0.0,VALID,98.07,VALID,-0.0,VALID,20.626,INVALID,360.0,VALID,0.0,
2019-08-16, 01:44:06,VALID,918.516,VALID,0.0,VALID,97.977,VALID,-0.005,VALID,20.588,INVALID,360.0,VALID,0.0,
2019-08-16, 01:45:06,VALID,918.484,VALID,0.0,VALID,97.93,VALID,0.003,VALID,20.573,INVALID,360.0,VALID,0.0,
2019-08-16, 01:46:06,VALID,918.461,VALID,0.0,VALID,98.028,VALID,0.016,VALID,20.599,INVALID,360.0,VALID,0.0,
2019-08-16, 01:47:06,VALID,918.439,VALID,0.0,VALID,98.138,VALID,0.028,VALID,20.625,INVALID,360.0,VALID,0.0,
2019-08-16, 01:48:06,VALID,918.443,VALID,0.0,VALID,98.102,VALID,0.003,VALID,20.608,INVALID,360.0,VALID,0.0,
2019-08-16, 01:49:06,VALID,918.414,VALID,0.0,VALID,98.107,VALID,-0.007,VALID,20.58,INVALID,360.0,VALID,0.0,
2019-08-16, 01:50:06,VALID,918.421,VALID,0.0,VALID,97.839,VALID,-0.02,VALID,20.529,INVALID,360.0,VALID,0.0,
2019-08-16, 01:51:06,VALID,918.419,VALID,0.0,VALID,97.791,VALID,-0.022,VALID,20.576,INVALID,360.0,VALID,0.0,
2019-08-16, 01:52:06,VALID,918.37,VALID,0.0,VALID,97.897,VALID,-0.01,VALID,20.6,INVALID,360.0,VALID,0.0,
2019-08-16, 01:53:06,VALID,918.364,VALID,0.0,VALID,97.743,VALID,-0.008,VALID,20.546,INVALID,360.0,VALID,0.0,
2019-08-16, 01:54:06,VALID,918.344,VALID,0.0,VALID,97.385,VALID,-0.004,VALID,20.488,INVALID,360.0,VALID,0.0,
2019-08-16, 01:55:06,VALID,918.312,VALID,0.0,VALID,97.134,VALID,0.013,VALID,20.48,INVALID,360.0,VALID,0.0,
2019-08-16, 01:56:06,VALID,918.295,VALID,0.0,VALID,97.376,VALID,0.0,VALID,20.53,INVALID,360.0,VALID,0.0,
2019-08-16, 01:57:06,VALID,918.281,VALID,0.0,VALID,97.698,VALID,0.015,VALID,20.568,INVALID,360.0,VALID,0.0,
2019-08-16, 01:58:06,VALID,918.263,VALID,0.0,VALID,97.966,VALID,0.005,VALID,20.608,INVALID,360.0,VALID,0.0,
2019-08-16, 01:59:06,VALID,918.264,VALID,0.0,VALID,97.952,VALID,0.008,VALID,20.585,INVALID,360.0,VALID,0.0,
2019-08-16, 02:00:06,VALID,918.277,VALID,0.0,VALID,97.739,VALID,-0.004,VALID,20.536,INVALID,360.0,VALID,0.0,
2019-08-16, 02:01:06,VALID,918.285,VALID,0.0,VALID,97.724,VALID,-0.01,VALID,20.547,INVALID,360.0,VALID,0.0,
2019-08-16, 02:02:06,VALID,918.314,VALID,0.0,VALID,97.679,VALID,-0.006,VALID,20.534,INVALID,360.0,VALID,0.0,
2019-08-16, 02:03:06,VALID,918.297,VALID,0.0,VALID,97.687,VALID,-0.002,VALID,20.533,INVALID,360.0,VALID,0.0,
2019-08-16, 02:04:06,VALID,918.305,VALID,0.0,VALID,97.759,VALID,0.003,VALID,20.532,INVALID,360.0,VALID,0.0,
2019-08-16, 02:05:06,VALID,918.325,VALID,0.0,VALID,97.931,VALID,-0.005,VALID,20.537,INVALID,360.0,VALID,0.0,
2019-08-16, 02:06:06,VALID,918.334,VALID,0.0,VALID,98.162,VALID,0.005,VALID,20.549,INVALID,360.0,VALID,0.0,
2019-08-16, 02:07:06,VALID,918.329,VALID,0.0,VALID,98.291,VALID,0.01,VALID,20.54,INVALID,360.0,VALID,0.0,
2019-08-16, 02:08:06,VALID,918.326,VALID,0.0,VALID,98.388,VALID,0.015,VALID,20.523,INVALID,360.0,VALID,0.0,
2019-08-16, 02:09:06,VALID,918.315,VALID,0.0,VALID,98.459,VALID,0.004,VALID,20.502,INVALID,360.0,VALID,0.0,
2019-08-16, 02:10:06,VALID,918.324,VALID,0.0,VALID,98.555,VALID,0.003,VALID,20.513,INVALID,360.0,VALID,0.0,
2019-08-16, 02:11:06,VALID,918.316,VALID,0.0,VALID,98.623,VALID,0.002,VALID,20.51,INVALID,360.0,VALID,0.0,
2019-08-16, 02:12:06,VALID,918.293,VALID,0.0,VALID,98.63,VALID,-0.006,VALID,20.498,INVALID,360.0,VALID,0.0,
2019-08-16, 02:13:06,VALID,918.274,VALID,0.0,VALID,98.68,VALID,-0.008,VALID,20.488,INVALID,360.0,VALID,0.0,
2019-08-16, 02:14:06,VALID,918.263,VALID,0.0,VALID,98.691,VALID,0.0,VALID,20.485,INVALID,360.0,VALID,0.0,
2019-08-16, 02:15:06,VALID,918.249,VALID,0.0,VALID,98.739,VALID,0.006,VALID,20.502,INVALID,360.0,VALID,0.0,
2019-08-16, 02:16:06,VALID,918.242,VALID,0.0,VALID,98.809,VALID,0.014,VALID,20.538,INVALID,360.0,VALID,0.0,
2019-08-16, 02:17:06,VALID,918.232,VALID,0.0,VALID,98.854,VALID,0.006,VALID,20.552,INVALID,360.0,VALID,0.0,
2019-08-16, 02:18:06,VALID,918.239,VALID,0.0,VALID,98.847,VALID,0.007,VALID,20.53,INVALID,360.0,VALID,0.0,
2019-08-16, 02:19:06,VALID,918.213,VALID,0.0,VALID,98.765,VALID,0.019,VALID,20.471,INVALID,360.0,VALID,0.0,
2019-08-16, 02:20:06,VALID,918.217,VALID,0.0,VALID,98.598,VALID,0.033,VALID,20.409,INVALID,360.0,VALID,0.0,
2019-08-16, 02:21:06,VALID,918.22,VALID,0.0,VALID,98.62,VALID,0.026,VALID,20.423,INVALID,360.0,VALID,0.0,
2019-08-16, 02:22:06,VALID,918.225,VALID,0.0,VALID,98.63,VALID,0.033,VALID,20.422,INVALID,360.0,VALID,0.0,
2019-08-16, 02:23:06,VALID,918.233,VALID,0.0,VALID,98.652,VALID,0.04,VALID,20.426,INVALID,360.0,VALID,0.0,
2019-08-16, 02:24:06,VALID,918.227,VALID,0.0,VALID,98.714,VALID,0.02,VALID,20.431,INVALID,360.0,VALID,0.0,
2019-08-16, 02:25:06,VALID,918.215,VALID,0.0,VALID,98.735,VALID,0.024,VALID,20.419,INVALID,360.0,VALID,0.0,
2019-08-16, 02:26:06,VALID,918.223,VALID,0.0,VALID,98.79,VALID,0.033,VALID,20.427,INVALID,360.0,VALID,0.0,
2019-08-16, 02:27:06,VALID,918.193,VALID,0.0,VALID,98.839,VALID,0.025,VALID,20.44,INVALID,360.0,VALID,0.0,
2019-08-16, 02:28:06,VALID,918.183,VALID,0.0,VALID,98.888,VALID,0.033,VALID,20.439,INVALID,360.0,VALID,0.0,
2019-08-16, 02:29:06,VALID,918.168,VALID,0.0,VALID,98.919,VALID,0.03,VALID,20.443,INVALID,360.0,VALID,0.0,
2019-08-16, 02:30:06,VALID,918.185,VALID,0.0,VALID,98.916,VALID,0.033,VALID,20.41,INVALID,360.0,VALID,0.0,
2019-08-16, 02:31:06,VALID,918.159,VALID,0.0,VALID,98.881,VALID,0.012,VALID,20.362,INVALID,360.0,VALID,0.0,
2019-08-16, 02:32:06,VALID,918.149,VALID,0.0,VALID,98.949,VALID,0.031,VALID,20.368,INVALID,360.0,VALID,0.0,
2019-08-16, 02:33:06,VALID,918.15,VALID,0.0,VALID,98.964,VALID,0.036,VALID,20.355,INVALID,360.0,VALID,0.0,
2019-08-16, 02:34:06,VALID,918.146,VALID,0.0,VALID,98.998,VALID,0.003,VALID,20.338,INVALID,360.0,VALID,0.0,
2019-08-16, 02:35:06,VALID,918.144,VALID,0.0,VALID,98.994,VALID,-0.007,VALID,20.323,INVALID,360.0,VALID,0.0,
2019-08-16, 02:36:06,VALID,918.124,VALID,0.0,VALID,99.007,VALID,-0.001,VALID,20.324,INVALID,360.0,VALID,0.0,
2019-08-16, 02:37:06,VALID,918.135,VALID,0.0,VALID,99.057,VALID,-0.012,VALID,20.332,INVALID,360.0,VALID,0.0,
2019-08-16, 02:38:06,VALID,918.138,VALID,0.0,VALID,99.065,VALID,-0.015,VALID,20.338,INVALID,360.0,VALID,0.0,
2019-08-16, 02:39:06,VALID,918.131,VALID,0.0,VALID,99.097,VALID,-0.008,VALID,20.342,INVALID,360.0,VALID,0.0,
2019-08-16, 02:40:06,VALID,918.134,VALID,0.0,VALID,99.118,VALID,-0.018,VALID,20.344,INVALID,360.0,VALID,0.0,
2019-08-16, 02:41:06,VALID,918.135,VALID,0.0,VALID,99.118,VALID,0.0,VALID,20.344,INVALID,360.0,VALID,0.0,
2019-08-16, 02:42:06,VALID,918.128,VALID,0.0,VALID,99.139,VALID,-0.01,VALID,20.343,INVALID,360.0,VALID,0.0,
2019-08-16, 02:43:06,VALID,918.131,VALID,0.0,VALID,99.152,VALID,0.007,VALID,20.34,INVALID,360.0,VALID,0.0,
2019-08-16, 02:44:06,VALID,918.132,VALID,0.0,VALID,99.191,VALID,-0.002,VALID,20.346,INVALID,360.0,VALID,0.0,
2019-08-16, 02:45:06,VALID,918.113,VALID,0.0,VALID,99.216,VALID,-0.006,VALID,20.338,INVALID,360.0,VALID,0.0,
2019-08-16, 02:46:06,VALID,918.099,VALID,0.0,VALID,99.225,VALID,-0.016,VALID,20.34,INVALID,360.0,VALID,0.0,
2019-08-16, 02:47:06,VALID,918.105,VALID,0.0,VALID,99.287,VALID,-0.008,VALID,20.359,INVALID,360.0,VALID,0.0,
2019-08-16, 02:48:06,VALID,918.103,VALID,0.0,VALID,99.327,VALID,-0.011,VALID,20.371,INVALID,360.0,VALID,0.0,
2019-08-16, 02:49:06,VALID,918.086,VALID,0.0,VALID,99.343,VALID,-0.003,VALID,20.367,INVALID,360.0,VALID,0.0,
2019-08-16, 02:50:06,VALID,918.089,VALID,0.0,VALID,99.365,VALID,-0.014,VALID,20.357,INVALID,360.0,VALID,0.0,
2019-08-16, 02:51:06,VALID,918.119,VALID,0.0,VALID,99.351,VALID,-0.008,VALID,20.343,INVALID,360.0,VALID,0.0,
2019-08-16, 02:52:06,VALID,918.117,VALID,0.0,VALID,99.389,VALID,-0.001,VALID,20.35,INVALID,360.0,VALID,0.0,
2019-08-16, 02:53:06,VALID,918.11,VALID,0.0,VALID,99.377,VALID,-0.025,VALID,20.329,INVALID,360.0,VALID,0.0,
2019-08-16, 02:54:06,VALID,918.115,VALID,0.0,VALID,99.373,VALID,-0.024,VALID,20.323,INVALID,360.0,VALID,0.0,
2019-08-16, 02:55:06,VALID,918.12,VALID,0.0,VALID,99.376,VALID,-0.006,VALID,20.331,INVALID,360.0,VALID,0.0,
2019-08-16, 02:56:06,VALID,918.119,VALID,0.0,VALID,99.387,VALID,-0.017,VALID,20.335,INVALID,360.0,VALID,0.0,
2019-08-16, 02:57:06,VALID,918.121,VALID,0.0,VALID,99.378,VALID,-0.013,VALID,20.36,INVALID,360.0,VALID,0.0,
2019-08-16, 02:58:06,VALID,918.113,VALID,0.0,VALID,99.359,VALID,-0.013,VALID,20.352,INVALID,360.0,VALID,0.0,
2019-08-16, 02:59:06,VALID,918.092,VALID,0.0,VALID,99.318,VALID,-0.016,VALID,20.316,INVALID,360.0,VALID,0.0,
2019-08-16, 03:00:06,VALID,918.101,VALID,0.0,VALID,99.296,VALID,-0.004,VALID,20.27,INVALID,360.0,VALID,0.0,
2019-08-16, 03:01:06,VALID,918.107,VALID,0.0,VALID,99.302,VALID,-0.02,VALID,20.269,INVALID,360.0,VALID,0.0,
2019-08-16, 03:02:06,VALID,918.109,VALID,0.0,VALID,99.284,VALID,-0.017,VALID,20.28,INVALID,360.0,VALID,0.0,
2019-08-16, 03:03:06,VALID,918.094,VALID,0.0,VALID,99.297,VALID,-0.003,VALID,20.288,INVALID,360.0,VALID,0.0,
2019-08-16, 03:04:06,VALID,918.083,VALID,0.0,VALID,99.269,VALID,0.012,VALID,20.284,INVALID,360.0,VALID,0.0,
2019-08-16, 03:05:06,VALID,918.08,VALID,0.0,VALID,99.281,VALID,-0.001,VALID,20.303,INVALID,360.0,VALID,0.0,
2019-08-16, 03:06:06,VALID,918.068,VALID,0.0,VALID,99.296,VALID,-0.005,VALID,20.316,INVALID,360.0,VALID,0.0,
2019-08-16, 03:07:06,VALID,918.06,VALID,0.0,VALID,99.289,VALID,0.0,VALID,20.283,INVALID,360.0,VALID,0.0,
2019-08-16, 03:08:06,VALID,918.048,VALID,0.2,VALID,99.281,VALID,0.002,VALID,20.332,INVALID,360.0,VALID,0.0,
2019-08-16, 03:09:06,VALID,918.053,VALID,0.0,VALID,99.321,VALID,0.013,VALID,20.379,INVALID,360.0,VALID,0.0,
2019-08-16, 03:10:06,VALID,918.052,VALID,0.0,VALID,99.281,VALID,0.003,VALID,20.319,INVALID,360.0,VALID,0.0,
2019-08-16, 03:11:06,VALID,918.054,VALID,0.0,VALID,99.264,VALID,0.002,VALID,20.311,INVALID,360.0,VALID,0.0,
2019-08-16, 03:12:06,VALID,918.05,VALID,0.0,VALID,99.308,VALID,0.007,VALID,20.342,INVALID,360.0,VALID,0.0,
2019-08-16, 03:13:06,VALID,918.06,VALID,0.0,VALID,99.29,VALID,0.004,VALID,20.341,INVALID,360.0,VALID,0.0,
2019-08-16, 03:14:06,VALID,918.055,VALID,0.0,VALID,99.291,VALID,-0.005,VALID,20.323,INVALID,360.0,VALID,0.0,
2019-08-16, 03:15:06,VALID,918.031,VALID,0.0,VALID,99.28,VALID,0.014,VALID,20.322,INVALID,360.0,VALID,0.0,
2019-08-16, 03:16:06,VALID,918.047,VALID,0.2,VALID,99.274,VALID,0.015,VALID,20.29,INVALID,360.0,VALID,0.0,
2019-08-16, 03:17:06,VALID,918.059,VALID,0.0,VALID,99.247,VALID,0.004,VALID,20.265,VALID,63.0,VALID,0.0,
2019-08-16, 03:18:06,VALID,918.049,VALID,0.0,VALID,99.261,VALID,0.001,VALID,20.267,INVALID,360.0,VALID,0.0,
2019-08-16, 03:19:06,VALID,918.049,VALID,0.2,VALID,99.239,VALID,0.021,VALID,20.245,INVALID,360.0,VALID,0.0,
2019-08-16, 03:20:06,VALID,918.04,VALID,0.2,VALID,99.184,VALID,0.028,VALID,20.191,INVALID,360.0,VALID,0.0,
2019-08-16, 03:21:06,VALID,918.045,VALID,0.2,VALID,99.152,VALID,0.012,VALID,20.163,INVALID,360.0,VALID,0.0,
2019-08-16, 03:22:06,VALID,918.048,VALID,0.0,VALID,99.151,VALID,0.028,VALID,20.154,INVALID,360.0,VALID,0.0,
2019-08-16, 03:23:06,VALID,918.055,VALID,0.0,VALID,99.14,VALID,0.018,VALID,20.143,INVALID,360.0,VALID,0.0,
2019-08-16, 03:24:06,VALID,918.076,VALID,0.2,VALID,99.133,VALID,0.03,VALID,20.12,INVALID,360.0,VALID,0.0,
2019-08-16, 03:25:06,VALID,918.046,VALID,0.0,VALID,99.095,VALID,0.033,VALID,20.106,INVALID,360.0,VALID,0.0,
2019-08-16, 03:26:06,VALID,918.049,VALID,0.2,VALID,99.11,VALID,0.012,VALID,20.097,INVALID,360.0,VALID,0.0,
2019-08-16, 03:27:06,VALID,918.056,VALID,0.0,VALID,99.107,VALID,0.011,VALID,20.099,INVALID,360.0,VALID,0.0,
2019-08-16, 03:28:06,VALID,918.047,VALID,0.0,VALID,99.136,VALID,0.013,VALID,20.119,INVALID,360.0,VALID,0.0,
2019-08-16, 03:29:06,VALID,918.042,VALID,0.0,VALID,99.1,VALID,0.026,VALID,20.102,INVALID,360.0,VALID,0.0,
2019-08-16, 03:30:06,VALID,918.032,VALID,0.0,VALID,99.048,VALID,0.026,VALID,20.091,INVALID,360.0,VALID,0.0,
2019-08-16, 03:31:06,VALID,918.032,VALID,0.2,VALID,99.042,VALID,0.025,VALID,20.125,INVALID,360.0,VALID,0.0,
2019-08-16, 03:32:06,VALID,918.043,VALID,0.0,VALID,99.004,VALID,0.015,VALID,20.11,INVALID,360.0,VALID,0.0,
2019-08-16, 03:33:06,VALID,918.046,VALID,0.0,VALID,98.85,VALID,0.028,VALID,20.051,INVALID,360.0,VALID,0.0,
2019-08-16, 03:34:06,VALID,918.038,VALID,0.2,VALID,98.718,VALID,-0.01,VALID,19.993,INVALID,360.0,VALID,0.0,
2019-08-16, 03:35:06,VALID,918.038,VALID,0.0,VALID,98.493,VALID,-0.015,VALID,19.936,INVALID,360.0,VALID,0.0,
2019-08-16, 03:36:06,VALID,918.044,VALID,0.2,VALID,98.346,VALID,-0.025,VALID,19.92,INVALID,360.0,VALID,0.0,
2019-08-16, 03:37:06,VALID,918.049,VALID,0.0,VALID,98.224,VALID,-0.01,VALID,19.913,INVALID,360.0,VALID,0.0,
2019-08-16, 03:38:06,VALID,918.044,VALID,0.2,VALID,98.27,VALID,-0.006,VALID,19.948,INVALID,360.0,VALID,0.0,